Inquirer Daily News

Weather

Get conditions and forecasts for any City, State, ZIP code or Country:  
Northeast Philadelphia, PA
on Wednesday, January 16, 2013

Wednesday
Previous Day Next Day
Daily Summary
 ActualAverage (KTTN)Record (KTTN)
Temperature
Mean Temperature °F 31°F  
Max Temperature 37°F 39°F 63°F (1995)
Min Temperature 33°F 23°F -5°F (1893)
Degree Days
Heating Degree Days 30 34  
Month to date heating degree days 543  
Since 1 July heating degree days 2438  
Cooling Degree Days 0 0  
Month to date cooling degree days 0  
Year to date cooling degree days 0  
Moisture
Dew Point 34°F   
Average Humidity 93    
Maximum Humidity 100    
Minimum Humidity 89    
Precipitation
Precipitation 0.77 in 0.09 in 1.14 in (1924)
Month to date precipitation 1.71  
Year to date precipitation 1.71  
Wind
Wind Speed 7 mph   
Max Wind Speed 12 mph   
Max Gust Speed 18 mph   
Visibility 5 miles   
Events Rain   

Key: T is trace of precipitation, MM is missing value
Source: NWS Daily Summary
Time(EST)TemperatureDew PointHumidity Pressure Visibility Wind DirectionWind SpeedGust SpeedPrecipitationEvents Conditions
1:37 AM 33.8°F 32.0°F 93% 30.17 in 3.0 miles NE 10.4 mph - N/A Rain Rain
1:54 AM 34.0°F 32.0°F 92% 30.17 in 4.0 miles NE 9.2 mph - 0.11 in Rain Rain
2:54 AM 34.0°F 32.0°F 92% 30.13 in 3.0 miles NE 11.5 mph - 0.19 in Rain Rain
3:54 AM 34.0°F 32.0°F 92% 30.12 in 3.0 miles NE 8.1 mph - 0.20 in Rain Rain
4:40 AM 33.8°F 32.0°F 93% 30.12 in 4.0 miles NE 6.9 mph - 0.10 in Rain Rain
4:54 AM 33.1°F 32.0°F 96% 30.11 in 3.0 miles NE 5.8 mph - 0.14 in Rain Rain
5:06 AM 33.8°F 32.0°F 93% 30.09 in 4.0 miles ENE 5.8 mph - 0.02 in Rain Rain
5:54 AM 34.0°F 32.0°F 92% 30.08 in 6.0 miles ENE 6.9 mph - 0.03 in   Overcast
6:54 AM 34.0°F 33.1°F 96% 30.07 in 4.0 miles ENE 5.8 mph - 0.01 in Rain Light Rain
7:54 AM 34.0°F 33.1°F 96% 30.06 in 5.0 miles ENE 5.8 mph - 0.02 in   Overcast
8:54 AM 34.0°F 33.1°F 96% 30.01 in 5.0 miles East 5.8 mph - 0.02 in Rain Light Rain
9:54 AM 35.1°F 35.1°F 100% 30.01 in 5.0 miles Calm Calm - 0.02 in Rain Light Rain
10:54 AM 36.0°F 34.0°F 93% 30.01 in 5.0 miles Calm Calm - 0.02 in Rain Light Rain
11:54 AM 36.0°F 35.1°F 97% 29.98 in 6.0 miles NNW 6.9 mph - 0.01 in   Overcast
12:54 PM 36.0°F 35.1°F 97% 29.88 in 5.0 miles SE 6.9 mph - 0.00 in   Overcast
1:54 PM 37.0°F 36.0°F 96% 29.91 in 3.0 miles WNW 8.1 mph 18.4 mph 0.00 in   Overcast
2:54 PM 36.0°F 34.0°F 93% 29.89 in 4.0 miles NNW 3.5 mph - 0.00 in   Overcast
3:54 PM 36.0°F 34.0°F 93% 29.93 in 5.0 miles SSW 5.8 mph - 0.00 in   Overcast
4:54 PM 36.0°F 34.0°F 93% 29.95 in 7.0 miles West 5.8 mph - N/A   Overcast
5:54 PM 36.0°F 34.0°F 93% 29.95 in 7.0 miles WSW 5.8 mph - N/A   Overcast
6:54 PM 37.0°F 35.1°F 93% 29.95 in 7.0 miles WSW 5.8 mph - N/A   Overcast
7:49 PM 37.4°F 35.6°F 93% 29.96 in 7.0 miles WSW 6.9 mph - N/A   Overcast
7:54 PM 37.9°F 35.1°F 89% 29.96 in 7.0 miles West 6.9 mph - N/A   Overcast
8:54 PM 37.9°F 35.1°F 89% 29.98 in 7.0 miles WSW 6.9 mph - N/A   Overcast
9:54 PM 37.9°F 35.1°F 89% 29.97 in 6.0 miles West 6.9 mph - N/A   Overcast
10:11 PM 37.4°F 35.6°F 93% 29.97 in 6.0 miles West 6.9 mph - N/A   Overcast
10:54 PM 37.9°F 35.1°F 89% 29.98 in 6.0 miles West 3.5 mph - N/A   Clear
11:54 PM 37.9°F 35.1°F 89% 29.97 in 6.0 miles West 3.5 mph - N/A   Clear
Astronomy
Sunrise:07:19 AM (EST) Moon Rise:09:54 AM (EST)1/16
Sunset:05:00 PM (EST) Moon Set:10:49 PM (EST)1/16
Moon Phase
Jan. 16 Jan. 18 Jan. 26 Feb. 03 Feb. 10

Copyright © 2014 The Weather Underground, Inc.